Regional Weather Roundup
Issued by NWS

Home | Current Version | Previous Version | Text Only | Print | Product List | Glossary On
Versions: 1 2 3 4 5 6 7 8 9 10 11 12 13 14 15 16 17 18 19 20 21 22 23 24 25 26 27 28 29 30 31 32 33 34 35 36 37 38 39 40 41 42 43 44 45 46 47 48 49 50
000
ASUS45 KABQ 220410
RWRNM
WEATHER ROUNDUP FOR NEW MEXICO
NATIONAL WEATHER SERVICE ALBUQUERQUE NM
1000 PM MDT TUE OCT 21 2014

NOTE: "FAIR" MEANS FEW OR NO CLOUDS BELOW 12,000 FEET AGL WITH NO
       SIGNIFICANT WEATHER OR OBSTRUCTIONS TO VISION.

      THIS PRODUCT IS RELEASED AS TWO VERSIONS.  ONE VERSION NEAR
      THE TOP OF THE HOUR CONTAINING PRELIMINARY DATA FROM ALBUQUERQUE
      AND OTHER STATIONS.  A FINAL VERSION WITH ADDITIONAL DATA IS
      ISSUED ABOUT 10 MINUTES AFTER THE HOUR.

NMZ501-503-504-510>518-220500-
NORTHWEST PLATEAU/NORTHCENTRAL MOUNTAINS

CITY           SKY/WX    TMP DP  RH WIND       PRES   REMARKS
FARMINGTON     PTCLDY    54  42  64 E9        30.06R
LOS ALAMOS     PTCLDY    51  42  71 S6        30.19R
SANTA FE       MOCLDY    54  46  74 SE7       30.14R
TAOS           CLOUDY    46  37  71 SE7       30.18R
ANGEL FIRE     MOCLDY    43  40  89 S7        30.23R

$$
NMZ402-403-502-505>509-220500-
WESTCENTRAL MOUNTAINS/SOUTHWEST MOUNTAINS

CITY           SKY/WX    TMP DP  RH WIND       PRES   REMARKS
GALLUP         PTCLDY    53  45  74 CALM      30.13R
GRANTS         MOCLDY    46  45  93 CALM      30.16R
SILVER CITY    CLEAR     52  48  87 NE5       30.12S

$$
NMZ407-409-411-412-220500-
SOUTHERN DESERTS

CITY           SKY/WX    TMP DP  RH WIND       PRES   REMARKS
LORDSBURG      FAIR      57  52  82 MISG      30.04S
DEMING         CLEAR     58  53  84 E5        30.06R
LAS CRUCES     CLEAR     60  54  79 SE5       30.08R
HOLLOMAN AFB   PTCLDY    59  53  80 S3        30.05R
T OR C         CLEAR     60  52  74 CALM      30.08R

$$
NMZ519>523-220500-
CENTRAL VALLEYS/CENTRAL HIGHLANDS

CITY           SKY/WX    TMP DP  RH WIND       PRES   REMARKS
ALBUQUERQUE    PTCLDY    57  47  69 SE6       30.11R
DOUBLE EAGLE   MOCLDY    52  46  82 S5        30.12R
MORIARTY ARPT  CLOUDY    53  49  87 S8        30.16S
CLINES CORNERS MOCLDY    49  47  93 S6        30.17R
BELEN          NOT AVBL
SOCORRO        FAIR      57  51  78 S6        30.09R

$$
NMZ524>526-539-540-220500-
SOUTHCENTRAL MOUNTAINS

CITY           SKY/WX    TMP DP  RH WIND       PRES   REMARKS
RUIDOSO        PTCLDY    48  48 100 SE7       30.21S

$$
NMZ527>531-220500-
NORTHEAST HIGHLANDS/NORTHEAST PLAINS

CITY           SKY/WX    TMP DP  RH WIND       PRES   REMARKS
LAS VEGAS      CLOUDY    50  49  96 S12       30.17S
RATON          MOCLDY    52  47  83 S9        30.11S
CLAYTON        PTCLDY    57  49  74 SW15G24   30.08R

$$
NMZ532>537-220500-
EASTCENTRAL PLAINS

CITY           SKY/WX    TMP DP  RH WIND       PRES   REMARKS
TUCUMCARI      CLOUDY    60  55  83 SW10      30.08R
CANNON AFB     PTCLDY    58  56  94 S6        30.11S
CLOVIS AIRPORT CLOUDY    57  54  88 SW6       30.14S

$$
NMZ028-029-538-220500-
SOUTHEAST PLAINS

CITY           SKY/WX    TMP DP  RH WIND       PRES   REMARKS
ROSWELL        CLOUDY    60  55  83 S9        30.09R
CARLSBAD       CLOUDY    65  61  87 SE5       30.07R
HOBBS          CLOUDY    61  59  94 S5        30.11S


$$



USA.gov is the U.S. government's official web portal to all federal, state and local government web resources and services.